Wind_Speed
11 10 9 9 8 8 8 8 8 7 7 7 7 8 8 8 8 7 6 5 4 3 2 1 1 1 2 2 2 3 3 4 4 5 5 5 5 5 5 5 5 5 5
11 10 10 10 9 9 9 9 8 8 8 8 8 9 9 9 9 8 7 6 5 4 3 2 1 1 1 1 1 1 2 2 3 4 4 5 5 5 5 5 5 5 5
13 12 12 11 11 10 10 10 9 9 9 9 9 10 10 10 10 9 9 8 7 6 4 3 2 2 1 1 0 0 0 1 2 2 3 3 4 4 4 4 4 4 4
14 14 13 13 12 12 11 11 11 10 10 10 11 11 11 12 12 11 10 9 8 7 6 5 4 3 3 2 2 2 2 2 2 1 1 2 2 3 4 4 4 4 4
15 15 15 14 14 13 13 13 12 12 11 11 11 12 12 12 12 12 11 11 10 9 8 6 6 5 4 4 4 4 4 3 3 2 1 0 1 2 3 3 3 3 3
16 16 15 15 15 15 15 14 14 13 13 13 13 13 13 13 13 13 13 12 11 10 9 8 7 7 6 5 5 5 5 5 4 3 2 1 1 1 2 2 2 3 2
16 16 16 15 15 16 16 16 15 15 15 14 14 14 15 15 14 15 14 14 13 12 11 10 9 9 8 7 7 7 7 6 6 5 4 3 2 2 1 1 2 2 2
16 16 16 16 16 16 17 17 16 16 16 16 16 16 16 16 16 16 16 15 15 14 13 12 12 11 10 9 9 9 8 8 7 7 6 5 4 3 2 2 2 2 2
16 16 16 17 17 17 17 18 17 17 17 17 17 18 17 17 18 18 18 17 17 16 15 15 14 13 12 11 11 10 10 9 9 8 7 7 6 5 4 3 3 2 2
17 16 16 17 17 18 18 18 18 18 18 18 19 19 19 19 19 19 19 19 18 18 17 16 15 14 14 13 13 12 12 11 10 9 9 8 8 7 6 5 5 4 4
16 16 16 17 17 18 19 19 19 19 19 19 19 20 20 20 20 20 20 20 20 19 19 18 17 16 15 15 14 14 14 13 12 11 10 10 10 9 8 7 7 7 6
15 16 16 17 18 18 19 19 19 19 19 20 20 21 21 21 21 21 22 22 21 21 21 20 18 18 17 17 16 16 15 15 13 12 12 12 12 11 10 9 9 8 8
15 16 15 16 17 18 19 19 19 19 20 21 21 21 21 22 22 22 22 22 22 23 23 22 21 20 19 18 18 18 17 17 15 14 14 14 14 13 12 12 11 11 10
14 15 14 14 16 17 18 17 18 20 21 22 23 23 23 23 23 23 23 23 23 23 24 23 23 22 21 20 20 20 19 18 17 16 15 16 16 15 14 14 14 13 13
16 16 16 16 18 18 18 18 19 20 21 22 24 24 24 24 24 23 24 23 23 24 24 24 24 23 23 22 22 21 21 20 19 18 18 17 17 17 17 16 16 15 15
19 19 17 17 18 19 20 20 21 22 22 23 23 23 24 25 25 25 25 26 26 25 25 25 26 25 25 24 23 23 22 22 21 20 19 19 18 19 19 19 18 17 17
20 21 20 18 19 21 21 22 23 24 24 24 24 25 25 26 27 27 27 27 27 27 27 27 26 26 26 25 25 24 24 23 23 22 21 21 19 20 20 20 20 20 20
21 22 22 21 22 23 23 24 25 25 26 26 26 27 27 28 28 29 29 29 29 29 29 29 28 27 27 27 26 26 25 25 24 24 23 22 22 22 22 22 22 22 22
24 24 24 24 24 25 25 26 26 27 28 28 29 29 29 29 30 30 31 31 31 31 31 31 29 29 29 29 28 27 27 28 27 26 25 25 25 25 24 23 23 24 23
24 25 25 26 26 27 27 28 28 29 29 30 30 30 31 31 31 32 33 32 32 31 31 30 30 31 31 30 30 29 29 29 29 28 27 27 27 26 26 26 25 25 26
25 26 26 27 28 29 29 30 30 30 30 31 31 31 32 32 33 33 33 32 32 31 31 31 30 30 31 31 31 30 30 30 30 29 28 28 28 28 28 27 27 27 27
25 26 27 28 28 29 30 31 31 31 31 31 31 32 32 32 32 32 33 32 32 32 31 31 30 31 32 32 32 32 31 31 31 30 30 29 30 30 30 29 29 29 29
24 26 27 28 28 29 30 31 31 32 33 33 32 32 33 33 34 33 33 33 33 32 31 31 31 31 31 32 32 32 32 32 32 31 32 31 31 32 32 32 31 30 29
24 25 26 26 27 28 29 30 31 32 33 33 33 33 33 34 33 34 34 34 32 32 31 32 32 32 32 33 33 33 33 33 33 33 33 33 33 33 33 33 33 32 31
24 24 24 25 25 26 28 29 29 30 31 32 31 32 32 32 33 34 34 34 34 32 32 32 32 32 33 33 33 33 33 33 33 33 33 33 34 34 34 34 34 34 34
23 24 23 24 25 26 27 27 28 29 30 30 30 31 32 32 33 34 34 34 33 33 33 33 33 33 33 32 33 35 35 35 33 33 32 32 33 34 34 33 34 35 34
Wind_Direction
231 230 227 221 215 208 202 200 202 206 211 216 218 219 220 221 218 212 212 216 218 215 197 161 143 115 87 80 68 62 69 75 70 61 56 56 57 59 59 58 55 54 50
232 230 230 226 221 216 212 208 211 214 218 221 222 224 225 227 226 222 223 228 235 237 229 219 204 187 131 84 69 58 69 82 79 71 62 56 57 58 57 57 54 53 52
235 233 234 231 227 222 218 215 216 220 225 227 228 231 231 232 232 232 232 237 241 243 242 241 237 226 230 233 234 276 114 126 110 90 70 57 53 54 54 55 52 50 50
238 238 236 236 232 228 225 223 222 224 228 231 234 236 237 238 238 239 241 244 245 247 247 248 247 243 245 249 248 250 234 211 190 156 96 59 50 50 51 52 49 47 47
241 241 239 237 236 234 232 231 229 229 232 234 237 240 243 244 245 245 246 247 249 252 252 251 251 249 251 255 254 253 246 233 223 214 205 129 47 44 45 44 43 38 39
243 242 240 238 238 238 238 238 236 236 238 240 242 245 249 251 250 251 251 252 252 255 256 254 252 252 253 258 258 254 249 242 231 227 227 233 253 342 27 33 29 22 27
244 244 242 241 242 241 241 241 241 240 242 245 248 251 253 255 256 257 255 255 255 257 258 257 256 257 255 257 259 258 253 247 240 235 233 242 251 273 305 350 357 358 5
244 243 242 244 244 243 242 243 244 244 246 250 253 255 257 258 261 261 259 257 257 258 260 259 259 260 260 260 261 262 259 251 245 242 236 242 249 258 271 287 303 312 320
245 245 245 245 245 245 244 244 245 246 248 252 256 257 258 260 263 264 263 261 261 261 262 263 262 263 263 262 262 262 262 258 251 247 244 247 250 255 262 268 275 282 284
244 244 246 248 248 247 246 247 246 248 250 253 256 257 259 262 264 265 266 264 264 264 263 264 264 265 264 263 262 263 262 260 256 251 246 248 250 254 258 258 262 269 275
245 248 245 245 245 246 248 248 249 250 252 253 256 258 260 263 264 265 266 265 265 265 263 264 264 264 264 262 261 262 261 259 258 256 250 250 252 254 256 256 258 262 266
252 254 250 249 248 247 249 250 251 252 254 255 256 259 261 262 264 266 265 265 264 263 263 263 262 261 261 260 259 261 261 258 257 257 254 253 254 255 256 257 256 259 261
259 261 255 254 252 249 250 250 252 254 256 258 259 260 261 262 264 264 263 264 264 262 261 261 261 261 260 258 258 258 259 258 255 252 254 255 255 255 256 257 257 257 260
260 264 266 264 262 259 257 256 256 258 260 259 260 260 261 261 263 263 261 261 263 263 262 260 259 260 259 258 256 256 257 258 257 254 253 255 256 256 256 257 257 257 259
269 274 277 269 270 265 262 262 260 261 263 263 262 263 264 263 263 262 264 265 264 264 263 261 259 259 258 258 257 256 256 257 258 255 253 255 257 258 257 258 258 258 259
275 274 269 269 269 270 269 266 265 265 265 265 266 264 265 265 265 266 265 265 265 265 263 261 259 261 260 258 257 255 254 256 257 256 256 256 258 259 258 258 258 259 261
277 279 275 273 271 271 270 269 268 267 267 267 267 268 267 267 264 265 264 265 265 265 264 261 258 259 259 257 255 255 254 254 257 256 254 255 257 258 258 257 258 260 263
278 281 277 275 273 271 270 269 269 269 269 269 268 267 267 266 266 266 264 267 267 266 266 262 260 259 259 257 255 254 254 255 258 258 256 255 256 257 257 257 258 260 262
279 277 276 275 274 272 271 270 269 269 269 267 266 266 266 267 267 267 266 266 267 267 267 265 262 260 258 257 255 254 254 255 256 257 258 256 257 257 258 259 260 261 262
279 277 275 276 274 271 270 270 270 270 270 269 268 267 266 267 267 267 266 266 266 267 267 266 264 260 258 257 256 256 255 256 256 258 259 258 259 259 259 261 262 261 261
280 279 276 275 273 271 270 269 269 269 269 269 269 269 267 268 268 267 266 266 267 268 268 267 265 261 259 257 256 256 257 258 259 259 259 260 261 261 261 262 263 263 263
280 278 276 275 273 271 270 270 270 269 270 269 269 269 269 269 268 267 267 267 269 268 266 266 265 263 260 257 257 258 257 258 259 261 260 261 262 261 262 264 264 266 268
281 280 279 276 273 271 270 269 270 270 269 269 269 269 269 268 268 268 267 267 267 267 267 265 263 263 261 258 259 259 259 258 260 261 262 260 260 260 262 263 265 267 266
283 283 281 278 275 273 271 271 271 270 270 270 270 270 270 268 268 267 266 265 267 268 266 265 262 262 261 258 259 260 261 260 262 262 263 261 260 261 262 264 266 268 268
284 285 283 278 276 275 273 273 273 272 270 271 270 270 270 269 267 267 267 266 266 266 265 264 263 262 261 259 257 259 260 260 261 262 263 263 262 262 263 264 265 268 269
286 286 284 281 278 277 275 274 274 274 273 271 271 270 270 269 269 268 268 267 265 264 264 264 263 262 262 261 259 259 261 261 262 261 261 263 264 263 263 265 265 268 269
Height
5885 5886 5887 5888 5889 5890 5890 5891 5892 5893 5894 5895 5896 5897 5898 5898 5898 5899 5899 5899 5899 5899 5899 5899 5899 5899 5898 5898 5898 5898 5898 5898 5898 5898 5898 5898 5898 5898 5898 5898 5898 5898 5897
5885 5885 5886 5887 5888 5889 5890 5890 5891 5892 5893 5894 5895 5896 5897 5898 5898 5898 5899 5899 5899 5899 5899 5899 5899 5899 5899 5898 5898 5898 5898 5898 5898 5899 5899 5899 5899 5899 5898 5898 5898 5898 5898
5883 5884 5885 5886 5887 5888 5889 5890 5890 5891 5892 5894 5895 5896 5896 5897 5898 5898 5898 5899 5899 5899 5899 5899 5899 5899 5898 5898 5898 5898 5898 5898 5899 5899 5899 5899 5899 5899 5899 5899 5899 5898 5898
5882 5883 5884 5885 5886 5887 5888 5889 5889 5890 5891 5892 5894 5895 5895 5896 5897 5897 5898 5898 5898 5898 5898 5898 5899 5898 5898 5898 5898 5898 5898 5898 5899 5899 5899 5899 5900 5899 5899 5899 5899 5899 5899
5881 5882 5882 5883 5884 5885 5886 5887 5888 5889 5890 5891 5892 5893 5894 5895 5896 5896 5897 5897 5897 5898 5898 5898 5898 5898 5898 5898 5898 5898 5898 5898 5899 5899 5899 5899 5900 5899 5899 5899 5899 5899 5899
5879 5880 5880 5881 5883 5884 5885 5886 5887 5888 5889 5890 5891 5892 5893 5893 5894 5895 5896 5896 5896 5896 5897 5897 5897 5897 5897 5897 5897 5897 5897 5898 5898 5899 5899 5899 5899 5899 5899 5899 5899 5899 5899
5877 5878 5878 5879 5881 5882 5883 5884 5885 5886 5887 5888 5889 5890 5891 5892 5892 5893 5894 5894 5895 5895 5896 5896 5896 5896 5896 5897 5897 5897 5897 5897 5898 5898 5899 5899 5899 5899 5899 5899 5899 5899 5899
5874 5875 5876 5877 5878 5879 5880 5882 5883 5884 5885 5886 5887 5888 5889 5890 5890 5891 5892 5892 5893 5893 5894 5895 5895 5895 5895 5895 5896 5896 5896 5896 5897 5897 5898 5898 5898 5898 5899 5899 5899 5899 5899
5871 5872 5873 5874 5875 5876 5877 5879 5880 5881 5882 5883 5884 5885 5886 5887 5888 5889 5890 5890 5891 5892 5892 5893 5893 5894 5894 5894 5894 5894 5895 5895 5896 5896 5897 5897 5898 5898 5898 5898 5898 5898 5899
5868 5869 5870 5871 5872 5873 5874 5875 5877 5878 5879 5881 5882 5883 5883 5884 5885 5886 5887 5888 5889 5889 5890 5890 5891 5891 5892 5892 5893 5893 5893 5894 5894 5895 5896 5896 5896 5897 5897 5897 5897 5898 5898
5863 5865 5866 5867 5868 5869 5870 5872 5873 5875 5876 5877 5878 5879 5880 5881 5882 5883 5884 5885 5886 5886 5887 5888 5888 5889 5889 5890 5891 5891 5891 5892 5893 5893 5893 5894 5895 5895 5895 5896 5896 5897 5897
5858 5861 5862 5864 5865 5866 5866 5868 5869 5871 5872 5873 5875 5876 5877 5878 5879 5880 5881 5881 5882 5883 5884 5884 5885 5886 5887 5887 5888 5889 5889 5890 5891 5891 5892 5892 5893 5893 5894 5894 5895 5895 5896
5854 5856 5857 5861 5861 5862 5862 5863 5866 5868 5868 5869 5871 5872 5873 5874 5875 5876 5877 5878 5879 5879 5880 5881 5882 5883 5883 5884 5885 5886 5886 5887 5888 5889 5890 5890 5891 5891 5892 5892 5893 5893 5894
5850 5850 5853 5856 5856 5857 5857 5859 5862 5864 5865 5866 5867 5868 5869 5870 5871 5872 5873 5874 5875 5875 5876 5878 5878 5879 5880 5881 5882 5882 5883 5884 5885 5886 5886 5888 5888 5889 5889 5890 5890 5891 5891
5846 5846 5850 5852 5853 5854 5854 5856 5857 5859 5860 5861 5862 5863 5865 5866 5866 5867 5868 5870 5870 5871 5872 5873 5875 5875 5876 5877 5878 5879 5880 5881 5882 5883 5883 5884 5885 5886 5887 5887 5888 5888 5889
5843 5843 5844 5846 5849 5850 5852 5853 5853 5855 5856 5857 5857 5857 5859 5861 5861 5862 5864 5865 5865 5866 5867 5868 5870 5871 5872 5872 5873 5875 5876 5877 5878 5879 5879 5881 5882 5882 5883 5884 5884 5885 5885
5837 5839 5841 5843 5845 5847 5848 5848 5849 5850 5851 5852 5853 5852 5854 5856 5857 5857 5858 5859 5860 5861 5862 5863 5864 5865 5867 5868 5868 5870 5870 5871 5873 5874 5876 5877 5878 5878 5879 5880 5881 5881 5882
5834 5836 5837 5839 5841 5842 5843 5844 5845 5845 5846 5847 5848 5849 5850 5850 5851 5852 5853 5853 5854 5855 5856 5857 5859 5860 5862 5863 5863 5865 5866 5867 5869 5870 5871 5872 5873 5874 5874 5875 5876 5877 5877
5831 5833 5834 5834 5836 5837 5837 5838 5839 5840 5841 5842 5842 5843 5844 5845 5845 5846 5847 5848 5848 5849 5850 5851 5853 5855 5856 5857 5858 5859 5861 5862 5863 5864 5865 5866 5868 5869 5869 5871 5871 5872 5873
5827 5828 5828 5829 5830 5831 5832 5833 5834 5834 5835 5836 5836 5837 5838 5838 5839 5840 5841 5841 5842 5843 5844 5845 5846 5847 5849 5850 5852 5853 5855 5856 5857 5858 5859 5860 5862 5863 5864 5865 5866 5867 5867
5823 5823 5823 5823 5824 5825 5826 5827 5827 5828 5829 5829 5830 5830 5831 5832 5832 5833 5834 5834 5835 5837 5837 5838 5839 5840 5842 5844 5845 5847 5848 5850 5851 5852 5853 5854 5856 5857 5858 5859 5860 5861 5862
5819 5819 5818 5818 5818 5818 5819 5820 5820 5821 5822 5822 5823 5823 5823 5825 5825 5826 5826 5827 5829 5830 5830 5830 5832 5834 5836 5837 5839 5839 5841 5843 5845 5846 5847 5849 5850 5850 5852 5853 5854 5855 5856
5814 5813 5813 5812 5812 5812 5813 5813 5814 5814 5814 5815 5815 5816 5817 5817 5818 5819 5820 5821 5822 5823 5824 5825 5826 5827 5829 5830 5831 5833 5834 5836 5837 5839 5840 5842 5842 5844 5845 5846 5847 5848 5849
5810 5808 5807 5806 5806 5806 5806 5807 5807 5807 5807 5808 5808 5809 5809 5810 5811 5811 5812 5813 5814 5816 5817 5818 5819 5820 5821 5823 5824 5826 5828 5829 5831 5832 5834 5834 5835 5836 5838 5839 5840 5841 5842
5805 5803 5802 5801 5801 5800 5800 5800 5800 5800 5800 5801 5801 5802 5802 5802 5803 5804 5805 5805 5806 5808 5809 5811 5812 5813 5814 5815 5817 5818 5820 5821 5823 5825 5826 5828 5828 5829 5830 5832 5833 5834 5835
5800 5799 5797 5796 5795 5795 5794 5794 5794 5794 5793 5793 5794 5794 5795 5795 5795 5796 5797 5798 5799 5801 5802 5803 5804 5805 5807 5808 5810 5812 5813 5814 5816 5817 5818 5820 5820 5822 5823 5824 5825 5826 5827